Voltar ao catálogo

FALCON 1 R/B

AtivoLEO
NORAD 35579·ROCKET BODY·🇺🇸 United States

Lançado Jul 14, 2009 de Ronald Reagan Space and Missile Test Range

Loading…

Próximas Passagens (próximas 24 horas)

TLE

AtualizadoSource: Space-Track

Época: Sep 14, 2026, 09:48 UTC

1 35579U 09037B   26257.40863319  .00002588  00000-0  19108-3 0  9999
2 35579   9.0433 207.8494 0037329 337.6575  22.1995 14.89466591928813

Acompanhe FALCON 1 R/B em tempo real com AllMySat

Download on the App Store